CZ-6A DEB, 60796

Orbit data source: Space-Track

CZ-6A DEB, 60796 is space debris in LEO originally from a launch on Tue, 06 Aug 2024 UTC launched from the Taiyaun Space Center, China (TSC). Debris objects in space refer to the collection of defunct objects orbiting the Earth. Examples of debris include non-operational satellites, rocket bodies, and fragments generated from explosions, collisions, or faulty payload assembly.

Loading next visibility...
Identifier
60796, 2024-140FX
Orbit
LEO
Country
Flag of CNCN / PRC
Related business
Manufacturer
SAST
Mission
Spacecraft
Bus & Motor
Unknown
Mass
Unknown
Launch date (UTC)
2024-08-06 (2 years ago)
Launch vehicle
Unknown
Launch site
Taiyaun Space Center, China (TSC)
Object type
Payload
Rocket body
Debris
Shape & HBR
Unknown shape, 0.1 m
Radar Cross Section
Medium (>0.1 m² and <1 m²)

Expand to show TLE details & history
Last TLE update: 13 hours ago

TLE from 13 hours ago
0 CZ-6A DEB
1 60796U 24140FX  26171.28986752  .00000211  00000-0  11654-3 0  9997
2 60796  88.9600 273.0280 0113744 232.3410 126.7411 14.04725423 95073
Epoch: 2026-06-20T06:57Z
TLE epoch observation values (Epoch: 2026-06-20T06:57:24.553Z)
Latitude
-0.00009°
Longitude
-99.83092°
Altitude
930.484 km
Speed
7.361 km/s
True Right ascension
18h 12m 06s
True Declination
0° 00' 00"
Sunlit
Object was in full shadow at epoch
Visualization orbit readout
Latitude
Unknown
Longitude
Unknown
Altitude
Unknown
Speed
Unknown
Apparent Right ascension
Unknown
Apparent Declination
Unknown
Sunlit
N/A
Visualization observer readout
Local Sidereal Time
07:21:53
Azimuth
Unknown
Elevation
Unknown
Doppler factor
Unknown
Orbital elements
Apogee altitude
956.944 km
Perigee altitude
791.957 km
Semi-major axis
7,252.588 km
Eccentricity
0.01137
Inclination
88.96°
RAAN
273.028°
Arg. of periapsis
232.341°
True anomaly
127.77672°
Mean anomaly
126.7411°
Eccentric anomaly
127.25979°
Mean motion
3.51402 °/min
Orbital period
102.45 mins
BSTAR
0.00011654
Loading maneuver chart data...
Computing Atmospheric mass density...
Loading historical data...
Loading historical data...
Loading historical data...
Loading historical data...
Loading historical data...
Loading historical data...
Loading historical data...

Documentation

Showing up to 5 results
|